sat.trackr.live / text

‹ back to catalog

STARLINK-11726 [DTC]

NORAD 64067 · 2025-107D

PAYLOAD ACTIVE UNKNOWN

§ Identity

Operator
Country
US
Launch date
2025-05-21
Launch site
AFETR
Launch vehicle
Mass (kg)
RCS (m²)

Purposes: comms

External: N2YO · Heavens-Above · Gunter

§ Orbital elements

Epoch: 2026-05-25T04:00:03.998880Z

Period
91.67 min
Inclination
43.0010°
Eccentricity
0.0001744
Mean motion
15.70852601 rev/d
Perigee alt
355.3 km
Apogee alt
357.6 km
Semi-major
6,734.6 km
B*
-6.2294e-6
RAAN
357.1224°
Arg perigee
265.6804°
Mean anomaly
230.1384°
Rev number
603

§ Raw data

STARLINK-11726 [DTC]1 64067U 25107D   26145.16671295 -.00001248  00000+0 -62294-5 0  99972 64067  43.0010 357.1224 0001744 265.6804 230.1384 15.70852601  6039

JSON: /api/v1/satellites/64067 · /tle

For live sub-satellite position, see the globe view (requires WebGL).

§ Visibility from observer

Set your observer location to see the next 7 days of passes ≥ 10°. The values pass through the URL so the page stays shareable.

No JS? Fill the form by hand. The geolocation button needs JavaScript.